Regional Weather Roundup
Issued by NWS

Home | Current Version | Previous Version | Graphics & Text | Print | Product List | Glossary Off
Versions: 1 2 3 4 5 6 7 8 9 10 11 12 13 14 15 16 17 18 19 20 21 22 23 24 25 26 27 28 29 30 31 32 33 34 35 36 37 38 39 40 41 42 43 44 45 46 47 48 49 50

000
ASUS43 KMKX 210200
RWRWI

WISCONSIN REGIONAL WEATHER ROUNDUP
NATIONAL WEATHER SERVICE MILWAUKEE/SULLIVAN WI
900 PM CDT SUN APR 20 2014

NOTE: "FAIR" INDICATES FEW OR NO CLOUDS BELOW 12,000 FEET WITH NO
SIGNIFICANT WEATHER AND/OR OBSTRUCTIONS TO VISIBILITY.

WIZ001-002-006>008-014>016-023>028-210300-
NORTHWEST WISCONSIN

CITY           SKY/WX    TMP DP  RH WIND       PRES   REMARKS
SUPERIOR ARPT  CLEAR     42  34  72 CALM      29.98S
ASHLAND        CLEAR     41  36  82 N3        30.02R
HAYWARD        CLEAR     51  32  48 NE7       30.00R
SIREN          CLEAR     55  33  42 CALM      29.98R
RICE LAKE      CLEAR     66  47  50 CALM      29.99R
LADYSMITH      CLEAR     60  52  75 E5        30.00S
EAU CLAIRE     MOCLDY    60  54  80 S3        29.97R
MENOMONIE      PTCLDY    60  53  79 CALM      29.97S
NEW RICHMOND   CLEAR     61  52  73 N6        29.97R
OSCEOLA        CLEAR     62  32  32 CALM      29.98S
$$

WIZ003>005-009-010-017-018-210300-
NORTH CENTRAL WISCONSIN

CITY           SKY/WX    TMP DP  RH WIND       PRES   REMARKS
WOODRUFF       CLOUDY    53  45  73 CALM      30.02R
RHINELANDER    PTCLDY    50  48  93 CALM      30.02R
EAGLE RIVER    MOCLDY    49  48  94 CALM      30.01S
LAND O LAKES   CLEAR     46  34  61 CALM      30.03R
PHILLIPS       CLEAR     54  50  86 NE8       30.00R
TOMAHAWK       MOCLDY    50  47  91 CALM      30.01R
MEDFORD        CLOUDY    55  53  94 CALM      30.00S
MERRILL        CLOUDY    52  51  95 CALM      30.00S
$$

WIZ029-030-035-036-043>047-210300-
CENTRAL WISCONSIN

CITY           SKY/WX    TMP DP  RH WIND       PRES   REMARKS
WAUSAU         CLOUDY    57  53  86 SE3       29.99S
MOSINEE        NOT AVBL
MARSHFIELD     CLOUDY    56  53  90 CALM      30.00R
STEVENS POINT  CLOUDY    53  51  92 CALM      30.01S
WAUPACA        CLOUDY    57  54  88 E3        30.01F
WAUTOMA        NOT AVBL
WISC RAPIDS    MOCLDY    53  51  93 CALM      30.02R
CAMP DOUGLAS   FOG       54  54 100 E5        29.99S VSB 1/2
$$

WIZ011>013-019>022-031-037>040-048>050-210300-
NORTHEAST WISCONSIN

CITY           SKY/WX    TMP DP  RH WIND       PRES   REMARKS
ANTIGO         CLOUDY    52  50  93 CALM      30.02S
STURGEON BAY   CLOUDY    50  43  76 S6        30.03F
GREEN BAY      CLOUDY    53  52  96 CALM      30.02S FOG
MANITOWOC      NOT AVBL
APPLETON       CLOUDY    54  52  94 N5        30.02S
CLINTONVILLE   CLOUDY    54  52  94 CALM      30.01F
OSHKOSH        CLOUDY    54  48  80 CALM      30.01R
$$

WIZ032>034-041-042-053>061-210300-
SOUTHWEST WISCONSIN

CITY           SKY/WX    TMP DP  RH WIND       PRES   REMARKS
LA CROSSE      CLOUDY    56  53  90 N5        29.97R FOG
SPARTA         MOCLDY    56  54  95 CALM      29.99S
VIROQUA        FAIR      57  57 100 E9        29.97S
BOSCOBEL       CLOUDY    58  55  90 CALM      29.95F FOG
PRAIRIE DU CHI MOCLDY    56  55  94 SE3       29.95S FOG
PLATTEVILLE    FAIR      67  46  46 S9        29.98S
$$

WIZ056-057-062-063-064-067-068-210300-
SOUTH CENTRAL WISCONSIN

CITY           SKY/WX    TMP DP  RH WIND       PRES   REMARKS
BARABOO/DELLS  CLOUDY    56  53  89 CALM      30.00R
LONE ROCK      NOT AVBL
WATERTOWN      CLOUDY    64  49  59 CALM      29.98S
MADISON        CLOUDY    63  50  62 CALM      29.99R
MIDDLETON      CLOUDY    63  49  60 N5        30.00R
MONROE         MOCLDY    68  45  43 S9        29.98F
JANESVILLE     CLEAR     70  37  30 S8        29.99S
$$

WIZ051-052-058>065-066-070>072-210300-
SOUTHEAST WISCONSIN

CITY           SKY/WX    TMP DP  RH WIND       PRES   REMARKS
MILWAUKEE      MOCLDY    63  38  39 S9        30.01F
WAUKESHA       PTCLDY    63  41  45 SE9       30.01F
MILWAUKEE/TIMM CLEAR     64  36  34 S9        30.01F
RACINE         MOCLDY    60  37  42 S15       30.03F
BURLINGTON     MOCLDY    64  42  43 SW5       30.01S
KENOSHA        MOCLDY    59  40  49 S9        30.02F
FOND DU LAC    CLOUDY    58  48  69 VRB3      30.00S
SHEBOYGAN      CLOUDY    52  39  61 SE5       30.02S
WEST BEND      CLOUDY    55  41  58 CALM      30.00F
JUNEAU         CLOUDY    59  45  59 N3        30.00S
$$

LSZ147-162-210300-
LAKE SUPERIOR

STATION/POSITION TIME  TEMP    WIND        PRES    WAVE
                       AIR SEA DIR/SP/G            HT/PER
                 (UTC) (F)     (DEG/KT/KT) (MB)    (FT/S)
DEVILS ISLAND    0100   56     140/  4/  4 1016.1F
PORT WING        0140   36      CALM  /  1 1015.6S
SAXON HARBOR     0100             CALM     1016.3R
$$

LMZ867-665-643>646-210300-
LAKE MICHIGAN

STATION/POSITION TIME  TEMP    WIND        PRES    WAVE
                       AIR SEA DIR/SP/G            HT/PER
                 (UTC) (F)     (DEG/KT/KT) (MB)    (FT/S)
NORTHPORT PIER   0100   44     140/  5/  7 1016.6F
SISTER BAY       0009   50     190/ 11/ 12   N/A
KEWAUNEE LAKESHO 0100   40     160/  5/  5 1017.8F
SHEBOYGAN LAKESH 0100   51     120/  6/  6 1017.5F
PORT WASHINGTON  0100   49     180/  5/  6 1016.9F
MILWAUKEE LAKESH 0100   51     200/  3/  8   N/A
KENOSHA   LAKESH 0100   53     180/ 16/ 20   N/A
$$

TC  - TEMPERATURE IN CELSIUS
VSB - VISIBILITY IN STATUTE MILES
WCI - WIND CHILL INDEX
HX  - HEAT INDEX




USA.gov is the U.S. government's official web portal to all federal, state and local government web resources and services.